SBI221 ULAA-URMM

Flight info

Callsign SBI221
Flight time N/A
Altitude 36000
Route ABELU3K ABELU T825 UREPI P65 ELMOD L4 LINRU T614 OSPER T828 NIBIM M54 LARIN LARIN5B
Aircraft A319/M-SDE3FGHIRWY/LB1

Departure

Time 2026-04-20 14:07
Airport Talagi Airport (ULAA)

Arrival

Time N/A
Airport Mineralnye Vody Airport (URMM)
Time Latitude Longitude Altitude Speed Heading
2026-04-20 14:01 64.59915 40.71299 71 ft 0 kts
2026-04-20 14:03 64.59922 40.71301 71 ft 3 kts
2026-04-20 14:03 64.59969 40.71315 71 ft 10 kts
2026-04-20 14:03 64.60036 40.71411 71 ft 15 kts 86°
2026-04-20 14:04 64.60024 40.71704 71 ft 21 kts 97°
2026-04-20 14:04 64.60005 40.72084 71 ft 25 kts 97°
2026-04-20 14:04 64.59982 40.72528 71 ft 29 kts 100°
2026-04-20 14:04 64.59961 40.72997 71 ft 28 kts 96°
2026-04-20 14:05 64.59938 40.73455 71 ft 28 kts 97°
2026-04-20 14:05 64.59913 40.73909 71 ft 28 kts 97°
2026-04-20 14:05 64.59892 40.74162 71 ft 10 kts 70°
2026-04-20 14:05 64.59905 40.74154 71 ft 1 kts 269°
2026-04-20 14:06 64.59907 40.74079 71 ft 10 kts 276°
2026-04-20 14:06 64.59949 40.73311 71 ft 83 kts 279°
2026-04-20 14:06 64.60033 40.71501 72 ft 142 kts 278°
2026-04-20 14:06 64.60155 40.69055 479 ft 155 kts 274°
2026-04-20 14:07 64.60252 40.66550 1076 ft 159 kts 277°
2026-04-20 14:07 64.60368 40.64018 1716 ft 160 kts 279°
2026-04-20 14:07 64.60495 40.61419 2227 ft 169 kts 279°
2026-04-20 14:07 64.60627 40.58620 2652 ft 184 kts 275°
2026-04-20 14:08 64.60274 40.55643 3022 ft 206 kts 232°
2026-04-20 14:08 64.59028 40.53847 3411 ft 224 kts 195°
2026-04-20 14:08 64.57435 40.53041 3807 ft 245 kts 191°
2026-04-20 14:08 64.55732 40.52217 4287 ft 263 kts 193°
2026-04-20 14:09 64.53914 40.51170 4930 ft 275 kts 195°
2026-04-20 14:09 64.52062 40.49963 5755 ft 279 kts 197°
2026-04-20 14:09 64.50205 40.48668 6566 ft 284 kts 197°
2026-04-20 14:09 64.48321 40.47293 7337 ft 289 kts 198°
2026-04-20 14:10 64.46407 40.45873 8132 ft 294 kts 198°
2026-04-20 14:10 64.44468 40.44429 8903 ft 299 kts 198°
2026-04-20 14:10 64.42492 40.42949 9663 ft 303 kts 198°
2026-04-20 14:10 64.40499 40.41453 10393 ft 308 kts 198°
2026-04-20 14:11 64.38438 40.39903 10958 ft 320 kts 198°
2026-04-20 14:11 64.36254 40.38262 11324 ft 338 kts 198°
2026-04-20 14:11 64.33978 40.36555 11645 ft 356 kts 198°
2026-04-20 14:11 64.31572 40.34754 11962 ft 373 kts 197°
2026-04-20 14:12 64.29064 40.32881 12263 ft 389 kts 197°
2026-04-20 14:12 64.26460 40.30940 12669 ft 400 kts 197°
2026-04-20 14:12 64.23811 40.28968 13279 ft 405 kts 197°
2026-04-20 14:12 64.21118 40.26965 13909 ft 408 kts 197°
2026-04-20 14:13 64.18415 40.24958 14488 ft 413 kts 197°
2026-04-20 14:13 64.15705 40.22950 15059 ft 417 kts 197°
2026-04-20 14:13 64.12947 40.20912 15625 ft 421 kts 197°
2026-04-20 14:13 64.10150 40.18848 16173 ft 425 kts 197°
2026-04-20 14:14 64.07360 40.16793 16701 ft 429 kts 197°
2026-04-20 14:14 64.04501 40.14690 17222 ft 433 kts 197°
2026-04-20 14:14 64.01653 40.12601 17703 ft 437 kts 197°
2026-04-20 14:14 63.98745 40.10472 18186 ft 442 kts 197°
2026-04-20 14:15 63.95822 40.08339 18665 ft 445 kts 197°
2026-04-20 14:15 63.92874 40.06192 19142 ft 448 kts 197°
2026-04-20 14:15 63.89904 40.04033 19609 ft 452 kts 197°
2026-04-20 14:15 63.86934 40.01879 20040 ft 455 kts 197°
2026-04-20 14:16 63.83915 39.99694 20470 ft 458 kts 197°
2026-04-20 14:16 63.80881 39.97502 20876 ft 461 kts 197°
2026-04-20 14:16 63.77844 39.95313 21295 ft 464 kts 197°
2026-04-20 14:16 63.74735 39.93077 21701 ft 467 kts 197°
2026-04-20 14:17 63.71686 39.90889 22071 ft 470 kts 197°
2026-04-20 14:17 63.68574 39.88662 22437 ft 473 kts 197°
2026-04-20 14:17 63.65432 39.86418 22797 ft 477 kts 197°
2026-04-20 14:17 63.62261 39.84159 23144 ft 480 kts 197°
2026-04-20 14:18 63.59109 39.81919 23492 ft 483 kts 197°
2026-04-20 14:18 63.55895 39.79639 23844 ft 485 kts 197°
2026-04-20 14:18 63.52689 39.77374 24185 ft 488 kts 197°
2026-04-20 14:18 63.49458 39.75097 24522 ft 490 kts 197°
2026-04-20 14:19 63.46212 39.72811 24836 ft 493 kts 197°
2026-04-20 14:19 63.42907 39.70488 25157 ft 496 kts 197°
2026-04-20 14:19 63.39621 39.68189 25460 ft 499 kts 197°
2026-04-20 14:19 63.36312 39.65875 25759 ft 501 kts 197°
2026-04-20 14:20 63.33025 39.63583 26040 ft 504 kts 197°
2026-04-20 14:20 63.29682 39.61258 26310 ft 506 kts 197°
2026-04-20 14:20 63.26284 39.58899 26649 ft 507 kts 197°
2026-04-20 14:20 63.22940 39.56584 27044 ft 506 kts 197°
2026-04-20 14:21 63.19625 39.54295 27438 ft 506 kts 197°
2026-04-20 14:21 63.16254 39.51973 27801 ft 506 kts 197°
2026-04-20 14:21 63.12919 39.49681 28148 ft 506 kts 197°
2026-04-20 14:21 63.09578 39.47391 28501 ft 506 kts 197°
2026-04-20 14:22 63.06250 39.45114 28852 ft 506 kts 197°
2026-04-20 14:22 63.02878 39.42814 29211 ft 506 kts 196°
2026-04-20 14:22 62.99529 39.40533 29568 ft 506 kts 196°
2026-04-20 14:22 62.96182 39.38260 29915 ft 506 kts 196°
2026-04-20 14:23 62.92856 39.36008 30247 ft 506 kts 196°
2026-04-20 14:23 62.89451 39.33707 30578 ft 507 kts 195°
2026-04-20 14:23 62.86121 39.31464 30897 ft 506 kts 195°
2026-04-20 14:23 62.82775 39.29215 31205 ft 506 kts 195°
2026-04-20 14:24 62.79419 39.26965 31527 ft 505 kts 195°
2026-04-20 14:24 62.76047 39.24708 31872 ft 503 kts 195°
2026-04-20 14:24 62.72759 39.22512 32208 ft 501 kts 195°
2026-04-20 14:24 62.69448 39.20305 32549 ft 499 kts 195°
2026-04-20 14:25 62.66149 39.18113 32876 ft 497 kts 195°
2026-04-20 14:25 62.62821 39.15909 33185 ft 495 kts 195°
2026-04-20 14:25 62.59550 39.13744 33480 ft 494 kts 195°
2026-04-20 14:25 62.56309 39.11606 33740 ft 492 kts 195°
2026-04-20 14:26 62.53028 39.09446 33983 ft 491 kts 195°
2026-04-20 14:26 62.49818 39.07336 34212 ft 489 kts 195°
2026-04-20 14:26 62.46587 39.05218 34423 ft 489 kts 195°
2026-04-20 14:26 62.43332 39.03090 34593 ft 489 kts 195°
2026-04-20 14:27 62.40076 39.00966 34755 ft 490 kts 195°
2026-04-20 14:27 62.36842 38.98863 34937 ft 489 kts 195°
2026-04-20 14:27 62.33583 38.96749 35095 ft 489 kts 195°
2026-04-20 14:27 62.30362 38.94661 35243 ft 489 kts 195°
2026-04-20 14:28 62.27096 38.92550 35400 ft 488 kts 195°
2026-04-20 14:28 62.23893 38.90483 35552 ft 488 kts 195°
2026-04-20 14:28 62.20630 38.88384 35693 ft 488 kts 195°
2026-04-20 14:28 62.17414 38.86320 35814 ft 488 kts 195°
2026-04-20 14:29 62.14175 38.84245 35928 ft 488 kts 195°
2026-04-20 14:29 62.10939 38.82176 36041 ft 488 kts 195°
2026-04-20 14:29 62.07731 38.80131 36158 ft 488 kts 195°
2026-04-20 14:29 62.04478 38.78062 36193 ft 488 kts 195°
2026-04-20 14:30 61.97987 38.73953 36200 ft 489 kts 195°
2026-04-20 14:30 61.91454 38.69980 36197 ft 488 kts 192°
2026-04-20 14:31 61.84871 38.67096 36203 ft 487 kts 189°
2026-04-20 14:31 61.78254 38.64292 36198 ft 486 kts 190°
2026-04-20 14:32 61.71669 38.61492 36193 ft 485 kts 190°
2026-04-20 14:32 61.65067 38.58702 36186 ft 486 kts 190°
2026-04-20 14:33 61.58487 38.55940 36182 ft 486 kts 190°
2026-04-20 14:33 61.51914 38.53192 36192 ft 486 kts 190°
2026-04-20 14:34 61.45311 38.50446 36175 ft 485 kts 189°
2026-04-20 14:34 61.38717 38.47717 36180 ft 485 kts 189°
2026-04-20 14:35 61.32137 38.45010 36170 ft 485 kts 189°
2026-04-20 14:35 61.25511 38.42310 36176 ft 485 kts 188°
2026-04-20 14:36 61.18862 38.40545 36165 ft 483 kts 184°
2026-04-20 14:36 61.12210 38.39132 36169 ft 484 kts 184°
2026-04-20 14:37 61.05552 38.37711 36151 ft 483 kts 184°
2026-04-20 14:37 60.98901 38.36298 36146 ft 483 kts 184°
2026-04-20 14:38 60.92256 38.34898 36123 ft 483 kts 183°
2026-04-20 14:38 60.85618 38.33508 36125 ft 481 kts 183°
2026-04-20 14:39 60.78969 38.32119 36132 ft 482 kts 183°
2026-04-20 14:39 60.72335 38.30739 36109 ft 480 kts 183°
2026-04-20 14:40 60.65722 38.29369 36122 ft 480 kts 183°
2026-04-20 14:40 60.59135 38.28012 36115 ft 479 kts 183°
2026-04-20 14:41 60.52544 38.26659 36129 ft 479 kts 183°
2026-04-20 14:41 60.45953 38.25315 36115 ft 478 kts 183°
2026-04-20 14:42 60.39371 38.23975 36109 ft 478 kts 183°
2026-04-20 14:42 60.32755 38.22636 36112 ft 478 kts 183°
2026-04-20 14:43 60.26203 38.21316 36105 ft 477 kts 183°
2026-04-20 14:43 60.19635 38.19982 36112 ft 476 kts 183°
2026-04-20 14:44 60.13077 38.18651 36093 ft 476 kts 183°
2026-04-20 14:44 60.06541 38.17338 36098 ft 475 kts 183°
2026-04-20 14:45 59.99977 38.16028 36096 ft 475 kts 183°
2026-04-20 14:45 59.93424 38.14724 36095 ft 474 kts 183°
2026-04-20 14:46 59.86886 38.13432 36097 ft 475 kts 183°
2026-04-20 14:46 59.80347 38.12142 36091 ft 473 kts 183°
2026-04-20 14:47 59.73863 38.10864 36087 ft 473 kts 183°
2026-04-20 14:48 59.64083 38.08943 36084 ft 473 kts 184°
2026-04-20 14:48 59.57545 38.07663 36083 ft 473 kts 183°
2026-04-20 14:49 59.51035 38.06401 36080 ft 473 kts 183°
2026-04-20 14:49 59.44527 38.05145 36076 ft 472 kts 183°
2026-04-20 14:50 59.38057 38.03905 36079 ft 471 kts 183°
2026-04-20 14:50 59.31551 38.02667 36078 ft 471 kts 184°
2026-04-20 14:51 59.25083 38.01466 36075 ft 471 kts 183°
2026-04-20 14:51 59.18592 38.00407 36073 ft 471 kts 182°
2026-04-20 14:52 59.12085 37.99359 36074 ft 470 kts 183°
2026-04-20 14:52 59.05605 37.98311 36071 ft 469 kts 183°
2026-04-20 14:53 58.99148 37.97271 36064 ft 468 kts 183°
2026-04-20 14:53 58.92662 37.96233 36064 ft 468 kts 183°
2026-04-20 14:54 58.86213 37.95199 36056 ft 468 kts 183°
2026-04-20 14:54 58.79767 37.94168 36054 ft 468 kts 183°
2026-04-20 14:55 58.73302 37.93144 36047 ft 468 kts 183°
2026-04-20 14:55 58.66834 37.92130 36044 ft 467 kts 182°
2026-04-20 14:56 58.60390 37.91236 36039 ft 466 kts 182°
2026-04-20 14:56 58.53956 37.90374 36038 ft 466 kts 182°
2026-04-20 14:57 58.47497 37.89505 36036 ft 466 kts 182°
2026-04-20 14:57 58.41070 37.88638 36031 ft 466 kts 182°
2026-04-20 14:58 58.34620 37.87772 36027 ft 466 kts 182°
2026-04-20 14:58 58.28187 37.86910 36018 ft 465 kts 182°
2026-04-20 14:59 58.21770 37.86055 36013 ft 465 kts 182°
2026-04-20 14:59 58.15352 37.85206 36016 ft 465 kts 182°
2026-04-20 15:00 58.08923 37.84355 36014 ft 464 kts 182°
2026-04-20 15:00 58.02508 37.83510 36001 ft 464 kts 182°
2026-04-20 15:01 57.96091 37.82669 36000 ft 464 kts 182°
2026-04-20 15:01 57.89669 37.81830 36000 ft 465 kts 182°
2026-04-20 15:02 57.83261 37.80998 35999 ft 465 kts 182°
2026-04-20 15:02 57.76818 37.80096 35995 ft 465 kts 182°
2026-04-20 15:03 57.70387 37.79166 35999 ft 464 kts 183°
2026-04-20 15:03 57.64012 37.78255 35996 ft 464 kts 183°
2026-04-20 15:04 57.57575 37.77344 35999 ft 464 kts 182°
2026-04-20 15:04 57.51175 37.76447 35994 ft 464 kts 182°
2026-04-20 15:05 57.44768 37.75554 35990 ft 464 kts 182°
2026-04-20 15:05 57.38369 37.74716 35989 ft 463 kts 182°
2026-04-20 15:06 57.31995 37.73895 35985 ft 463 kts 182°
2026-04-20 15:06 57.25583 37.73071 35981 ft 463 kts 182°
2026-04-20 15:07 57.19187 37.72284 35971 ft 463 kts 179°
2026-04-20 15:07 57.12771 37.72868 36094 ft 462 kts 174°
2026-04-20 15:07 57.09589 37.73299 36248 ft 461 kts 174°
2026-04-20 15:08 57.06406 37.73724 36382 ft 460 kts 174°
2026-04-20 15:08 57.03215 37.74138 36486 ft 460 kts 174°
2026-04-20 15:08 57.00057 37.74536 36579 ft 461 kts 174°
2026-04-20 15:08 56.96843 37.74937 36688 ft 461 kts 174°
2026-04-20 15:09 56.93693 37.75326 36777 ft 461 kts 174°
2026-04-20 15:09 56.87312 37.76107 36926 ft 462 kts 174°
2026-04-20 15:10 56.80912 37.76881 36932 ft 462 kts 174°
2026-04-20 15:10 56.74516 37.77652 36934 ft 462 kts 175°
2026-04-20 15:11 56.68113 37.78419 36925 ft 461 kts 175°
2026-04-20 15:11 56.61745 37.79179 36917 ft 460 kts 175°
2026-04-20 15:12 56.55413 37.79933 36923 ft 460 kts 175°
2026-04-20 15:12 56.49042 37.80691 36916 ft 461 kts 175°
2026-04-20 15:13 56.42685 37.81446 36918 ft 461 kts 175°
2026-04-20 15:13 56.36270 37.82203 36911 ft 461 kts 175°
2026-04-20 15:14 56.29874 37.82955 36909 ft 461 kts 175°
2026-04-20 15:14 56.26710 37.83326 36916 ft 461 kts 175°